Regional Weather Roundup
Issued by NWS Sioux Falls, SD

Home | Current Version | Previous Version | Text Only | Print | Product List | Glossary On
Versions: 1 2 3 4 5 6 7 8 9 10 11 12 13 14 15 16 17 18 19 20 21 22 23 24 25 26 27 28 29 30 31 32 33 34 35 36 37 38 39 40 41 42 43 44 45 46 47 48 49 50
000
ASUS43 KFSD 250402
RWRFSD

WEATHER ROUNDUP FOR SE SOUTH DAKOTA/SW MINNESOTA/NW IOWA
NATIONAL WEATHER SERVICE SIOUX FALLS SD
1100 PM CDT SUN JUL 24 2016

NOTE: "FAIR" INDICATES FEW OR NO CLOUDS BELOW 12,000 FEET WITH NO
SIGNIFICANT WEATHER AND OR OBSTRUCTIONS TO VISIBILITY.


SDZ038>040-050-052>070-250500-
SOUTHEAST SOUTH DAKOTA

CITY           SKY/WX    TMP DP  RH WIND       PRES   REMARKS
BROOKINGS      CLEAR     68  64  87 CALM      30.08R
CHAMBERLAIN    CLEAR     71  53  53 CALM      30.09S
HURON          CLEAR     71  60  68 SW6       30.06R
MADISON        FAIR      66  66 100 CALM      30.09S
MITCHELL       CLEAR     70  61  73 SW3       30.09R
SIOUX FALLS    PTCLDY    68  63  84 SW3       30.08R
WINNER         FAIR      70  53  54 SE9       30.11S
YANKTON        CLOUDY    72  61  68 CALM      30.08S
$$

MNZ071-072-080-081-089-090-097-098-250500-
SOUTHWEST MINNESOTA

CITY           SKY/WX    TMP DP  RH WIND       PRES   REMARKS
FAIRMONT       CLEAR     70  63  78 W7        30.03R
JACKSON        CLEAR     66  63  88 SW3       30.07S
LUVERNE        CLEAR     64  61  88 CALM      30.09R
MARSHALL       CLEAR     67  64  90 W8        30.05R
MONTEVIDEO     CLEAR     70  61  73 W3        30.04R
REDWOOD FALLS  CLEAR     69  62  78 W7        30.02R
TRACY          CLEAR     70  65  83 W6        30.05R
WINDOM         CLEAR     66  63  88 SW5       30.06R
WORTHINGTON    CLEAR     66  62  87 SW6       30.09R
$$

IAZ001>003-012>014-020>022-031-032-NEZ013-014-SDZ071-250500-
NORTHWEST IOWA

CITY           SKY/WX    TMP DP  RH WIND       PRES   REMARKS
CHEROKEE       PTCLDY    67  65  91 CALM      30.08S
ESTHERVILLE    CLEAR     66  64  93 W6        30.05R
LE MARS        CLOUDY    70  66  88 CALM      30.09S
SHELDON        CLEAR     66  64  94 SW6       30.07R
SIOUX CITY     PTCLDY    68  64  87 W3        30.07S
SPENCER        CLEAR     65  62  90 W7        30.07R
STORM LAKE     CLEAR     68  63  83 NW8       30.09R
$$

ABBREVIATIONS USED IN REMARKS
   TC - TEMPERATURE IN CELSIUS
  WCI - WIND CHILL INDEX
   HX - HEAT INDEX
  VSB - VISIBILITY




USA.gov is the U.S. government's official web portal to all federal, state and local government web resources and services.